{"data":{"norad_id":49279,"intl_designator":"2021-090A","name":"ONEWEB-0332","alt_names":[],"object_type":"PAYLOAD","status":"ACTIVE","operator":null,"country":"UK","launch_date":"2021-10-14","launch_site_code":"VOSTO","launch_vehicle":null,"mission":null,"orbit_class":"UNKNOWN","rcs_meters":null,"size_class":null,"mass_kg":null,"dimensions":null,"purposes":["comms"],"wikipedia_slug":null,"has_3d_model":false,"image_url":null,"decayed_at":null,"tle_current":{"epoch":"2026-09-19T23:39:47.922048Z","epoch_age_seconds":70248,"freshness":"FRESH","line1":"1 49279U 21090A   26262.98597132 -.00000088  00000+0 -27230-3 0  9999","line2":"2 49279  87.8896 270.8007 0001963  85.4374 274.6980 13.14503563240039","mean_motion":13.14503563,"eccentricity":0.0001963,"inclination_deg":87.8896,"raan_deg":270.8007,"arg_perigee_deg":85.4374,"mean_anomaly_deg":274.698,"bstar":-0.0002723,"rev_number":24003,"period_min":109.547059478,"perigee_km":1204.2986955667,"apogee_km":1207.276144294,"semimajor_km":7583.9244199304,"source":"CELESTRAK","updated_at":"2026-09-20T09:00:44.667955Z"}}}